Location: Bottenau
(48.5138°N, 8.0462°E)
Time: 09:50:40
(UTC+00:00)

Cosmos 2251 Rocket - Pass Details

Date: 18 April 2021
Orbit: 765 x 791 km, 74.0° (Epoch: 05 May)

Event Time Altitude Azimuth Distance (km) Brightness Sun altitude
Rises 19:54:35 0° 198° (SSW) 3,275 6.6 -14.2°
Reaches altitude 10° 19:56:58 10° 198° (SSW) 2,348 5.8 -14.5°
Maximum altitude 20:02:19 84° 111° (ESE) 799 3.5 -15.2°
Drops below altitude 10° 20:07:41 10° 24° (NNE) 2,352 6.2 -15.9°
Sets 20:10:05 0° 24° (NNE) 3,281 7.0 -16.2°
